Location: Robert Brownlee Observatory
(34.2308°N, 117.2089°W)
Time: 11:50:40
(UTC-07:00)

Cosmos 1943 - Visible Passes

Search period start: 28 March 2015 00:00
Search period end: 07 April 2015 00:00
Orbit: 833 x 851 km, 71.0° (Epoch: 28 March)

Date Brightness Start Highest point End Pass type
(mag) Time Alt. Az. Time Alt. Az. Time Alt. Az.
29 Mar 5.7 22:13:19 10° NNE 22:13:39 11° NNE 22:13:39 11° NNE visible
30 Mar 5.6 21:58:32 10° NNE 21:59:14 12° NNE 21:59:14 12° NNE visible
31 Mar 5.4 21:43:45 10° NNE 21:44:50 13° NNE 21:44:50 13° NNE visible
31 Mar 6.0 23:26:20 10° NNW 23:26:40 12° NNW 23:26:40 12° NNW visible
01 Apr 5.3 21:28:59 10° NNE 21:30:28 14° NNE 21:30:28 14° NNE visible
01 Apr 5.8 23:11:25 10° NNW 23:12:18 15° NNW 23:12:18 15° NNW visible
02 Apr 5.2 21:14:13 10° NNE 21:16:08 14° NE 21:16:08 14° NE visible
02 Apr 5.5 22:56:30 10° NNW 22:57:58 19° NNW 22:57:58 19° NNW visible
03 Apr 5.1 20:59:29 10° NNE 21:01:50 15° NE 21:01:50 15° NE visible
03 Apr 5.2 22:41:35 10° NNW 22:43:40 23° NNW 22:43:40 23° NNW visible
04 Apr 5.0 20:44:45 10° NNE 20:47:31 14° NE 20:47:34 14° NE visible
04 Apr 4.8 22:26:40 10° NNW 22:29:24 30° NNW 22:29:24 30° NNW visible
05 Apr 5.0 20:30:04 10° NNE 20:32:35 13° NE 20:33:21 13° ENE visible
05 Apr 4.4 22:11:46 10° NNW 22:15:11 38° NNW 22:15:11 38° NNW visible
06 Apr 5.0 20:15:23 10° NNE 20:17:38 13° NE 20:19:10 12° ENE visible
06 Apr 3.9 21:56:51 10° NNW 22:01:01 51° NNW 22:01:01 51° NNW visible
